Weather in San Diego

United States     32°42′56″N   117°09′16″W
В апреле 2022 года жителям России запретили посещать сайт meteo.paraplan.net по решению Генеральной прокуратуры. Аудитория сайта уменьшилась в 10 раз. Владельцы сайта не видят смысла в поддержке погодного сервера в таких условиях. Сайт будет закрыт в октябре.
temp.,
°C
wind,
m/s
gust,
m/s
humid.,
%
clouds,
%
prec.,
mm/h
press.,
hPa
HPBL,
m
4 october, tue
tue423:00+20wnw22830 0.0 1014275
02:00+19wnw118510 0.0 1013266
05:00+20nw11851 0.0 1013224
08:00+20wnw11830 0.0 1014205
11:00+22w32774 0.0 1014360
14:00+22wsw437727 0.0 1013430
17:00+21sw327815 0.0 1012376
20:00+21ssw228113 0.0 1013228
5 october, wed
wed523:00+21sw11801 0.0 1014175
02:00+20wsw11800 0.0 1013139
05:00+20wnw11810 0.0 1013124
08:00+21sw11800 0.0 1014141
11:00+23wsw32710 0.0 1014266
14:00+23wsw33714 0.0 1013360
17:00+22sw227310 0.0 1013310
20:00+22sw22782 0.0 1014161
6 october, thu
thu623:00+21ssw11780 0.0 1015141
02:00+21w11780 0.0 101494
05:00+21wsw11780 0.0 101491
08:00+21w11760 0.0 1015109
11:00+23wsw32670 0.0 1016276
14:00+23wsw33663 0.0 1015344
17:00+22w226842 0.0 1014303
20:00+22sw22741 0.0 1015167
7 october, fri
fri723:00+22sw11742 0.0 101691
02:00+21wnw11750 0.0 101555
05:00+21nw22770 0.0 101471
08:00+22sw11750 0.0 101555
11:00+23wsw22631 0.0 1015213
14:00+23wsw33675 0.0 1013276
17:00+22sw33696 0.0 1013272
20:00+22sw22715 0.0 1014117
8 october, sat
sat823:00+22s337715 0.0 1015186
02:00+21s23772 0.0 1015150
05:00+21s11776 0.0 101465
08:00+22nw11755 0.0 101559
11:00+24sw32635 0.0 1015218
14:00+23sw457121 0.2 1014352
17:00+22s6775100 0.6 1014367
20:00+21ssw678297 0.4 1015313